Location: Unspecified
(0.0000°N, 0.0000°E)
Time: 11:37:05
(UTC+00:00)

NUDT-PHONESAT - Visible Passes

Search period start: 14 December 2019 00:00
Search period end: 24 December 2019 00:00
Orbit: 488 x 503 km, 97.4° (Epoch: 14 December)

Date Brightness Start Highest point End Pass type
(mag) Time Alt. Az. Time Alt. Az. Time Alt. Az.
14 Dec ? 18:54:36 10° SW 18:56:54 16° WSW 18:59:11 10° WNW visible
15 Dec ? 18:32:38 10° SSW 18:35:58 34° W 18:39:18 10° NW visible
18 Dec ? 19:05:19 10° WSW 19:06:32 11° WSW 19:07:43 10° W visible
19 Dec ? 05:21:02 10° ENE 05:22:40 13° ESE 05:24:18 10° SE visible
19 Dec ? 18:42:35 10° SSW 18:45:35 24° WSW 18:48:35 10° NW visible
20 Dec ? 18:21:03 10° S 18:24:38 55° W 18:28:12 10° NNW visible
23 Dec ? 05:29:44 10° ENE 05:32:14 18° ESE 05:34:44 10° SE visible
23 Dec ? 18:52:40 10° SW 18:55:08 17° WSW 18:57:37 10° WNW visible
